Weather History for KVCB - December, 2011

Change the Weather History Date:

Monday, December 26, 2011

  Actual Average Record
Temperature  
Mean Temperature 40 °F -  
Max Temperature 55 °F 52 °F 76 °F (1967)
Min Temperature 25 °F 34 °F 20 °F (1976)
Degree Days  
Heating Degree Days 25    
Moisture  
Dew Point 30 °F    
Average Humidity 76    
Maximum Humidity 100    
Minimum Humidity 39    
Precipitation  
Precipitation 0.00 in - - ()
Sea Level Pressure  
Sea Level Pressure 30.32 in    
Wind  
Wind Speed 1 mph (ESE)    
Max Wind Speed 6 mph    
Max Gust Speed -    
Visibility 8 miles    
Events      
Averages and records for this station are not official NWS values.
T = Trace of Precipitation, MM = Missing Value Source: NWS Daily Summary

Daily Weather History Graph

Daily Weather History Graph

Search for Another Location

Airport or City:

Trip Planner

Search our weather history database for the weather conditions in past years. The results will help you decide how hot, cold, wet, or windy it might be!

Date:

Astronomy

Dec. 26, 2011 Rise Set
Actual Time 7:23 AM PST 4:53 PM PST
Civil Twilight 6:53 AM PST 5:23 PM PST
Nautical Twilight 6:20 AM PST 5:56 PM PST
Astronomical Twilight 5:48 AM PST 6:28 PM PST
Moon 8:48 AM PST (12/26) 7:25 PM PST (12/26)
Length of Visible Light 10h 29m
Length of Day
9h 30m
Waxing Crescent, 5% of the Moon is Illuminated
Dec 26
Waxing Crescent
Dec 31
First Quarter
Jan 8
Full
Jan 16
Last Quarter
Jan 22
New

Hourly Weather History & Observations

Time (PST) Temp. Windchill Dew Point Humidity Pressure Visibility Wind Dir Wind Speed Gust Speed Precip Events Conditions
12:53 AM 30.0 °F - 27.0 °F 88% 30.32 in 6.0 mi Calm Calm - N/A   Clear
1:53 AM 32.0 °F 27.5 °F 28.0 °F 85% 30.32 in 6.0 mi ENE 4.6 mph - N/A   Clear
2:53 AM 30.0 °F - 27.0 °F 88% 30.32 in 5.0 mi Calm Calm - N/A   Clear
3:53 AM 27.0 °F - 25.0 °F 92% 30.32 in 5.0 mi Calm Calm - N/A   Clear
4:53 AM 26.1 °F - 26.1 °F 100% 30.31 in 5.0 mi Calm Calm - N/A   Clear
5:53 AM 27.0 °F - 26.1 °F 96% 30.31 in 6.0 mi Calm Calm - N/A   Clear
6:53 AM 25.0 °F - 24.1 °F 96% 30.31 in 6.0 mi Calm Calm - N/A   Clear
7:53 AM 28.0 °F - 26.1 °F 92% 30.33 in 6.0 mi Calm Calm - N/A   Clear
8:53 AM 39.0 °F - 32.0 °F 76% 30.34 in 7.0 mi Calm Calm - N/A   Clear
9:53 AM 43.0 °F - 32.0 °F 65% 30.36 in 9.0 mi Calm Calm - N/A   Clear
10:53 AM 46.0 °F 44.8 °F 33.1 °F 61% 30.36 in 9.0 mi East 3.5 mph - N/A   Clear
11:53 AM 50.0 °F - 33.1 °F 52% 30.35 in 10.0 mi Calm Calm - N/A   Clear
12:53 PM 53.1 °F - 32.0 °F 45% 30.32 in 10.0 mi Calm Calm - N/A   Clear
1:53 PM 55.9 °F - 30.9 °F 39% 30.29 in 10.0 mi East 3.5 mph - N/A   Clear
2:53 PM 55.9 °F - 32.0 °F 40% 30.30 in 10.0 mi Calm Calm - N/A   Clear
3:53 PM 55.0 °F - 35.1 °F 47% 30.29 in 8.0 mi SSW 4.6 mph - N/A   Clear
4:53 PM 52.0 °F - 39.0 °F 61% 30.30 in 10.0 mi South 5.8 mph - N/A   Clear
5:53 PM 44.1 °F - 37.0 °F 76% 30.30 in 10.0 mi Calm Calm - N/A   Clear
6:53 PM 39.0 °F - 34.0 °F 82% 30.31 in 9.0 mi Calm Calm - N/A   Clear
7:53 PM 35.1 °F - 33.1 °F 92% 30.32 in 9.0 mi Calm Calm - N/A   Clear
9:53 PM 32.0 °F - 28.9 °F 88% 30.34 in 8.0 mi Calm Calm - N/A   Clear
10:53 PM 33.1 °F - 30.9 °F 92% 30.36 in 9.0 mi Calm Calm - N/A   Clear
11:53 PM 30.9 °F - 28.9 °F 92% 30.37 in 8.0 mi Calm Calm - N/A   Clear